Location: Hopville
(44.8032°N, 123.1329°W)
Time: 04:41:53
(UTC+00:00)

H-2A R/B - Pass Details

Date: 24 January 2021
Orbit: 504 x 534 km, 97.3° (Epoch: 25 February)

Event Time Altitude Azimuth Distance (km) Brightness Sun altitude
Rises 13:59:52 0° 9° (N) 2,633 6.3 -17.6°
Reaches altitude 10° 14:01:58 10° 7° (N) 1,746 5.3 -17.3°
Maximum altitude 14:05:42 67° 285° (WNW) 566 2.6 -16.6°
Drops below altitude 10° 14:09:26 10° 203° (SSW) 1,748 5.3 -15.9°
Sets 14:11:32 0° 200° (SSW) 2,636 6.2 -15.6°
